This is the latest recevied weather packets stored in our database for station/object W4SNA-3. If no packets are shown the sender has not sent any weather packets the latest 10 day(s).
| Time | Temp. | Humidity | Pressure | Rain* | Wind** | Luminosity | Snow |
|---|---|---|---|---|---|---|---|
| 1788281695 | 29.44° C | 64% | 1022.3 hPa | 0 mm | - | - | - |
| 1788281395 | 29.44° C | 65% | 1022.3 hPa | 0 mm | - | - | - |
| 1788281095 | 29.44° C | 66% | 1022.4 hPa | 0 mm | - | - | - |
| 1788280795 | 29.44° C | 65% | 1022.6 hPa | 0 mm | - | - | - |
| 1788280496 | 29.44° C | 64% | 1022.7 hPa | 0 mm | - | - | - |
| 1788280195 | 29.44° C | 67% | 1022.7 hPa | 0 mm | - | - | - |
| 1788279895 | 29.44° C | 67% | 1022.7 hPa | 0 mm | - | - | - |
| 1788279595 | 28.89° C | 66% | 1022.7 hPa | 0 mm | - | - | - |
| 1788279297 | 28.89° C | 64% | 1022.8 hPa | 0 mm | - | - | - |
| 1788278514 | 28.89° C | 67% | 1022.7 hPa | 0 mm | - | - | - |
| 1788278197 | 28.89° C | 66% | 1022.7 hPa | 0 mm | - | - | - |
| 1788277905 | 29.44° C | 66% | 1022.9 hPa | 0 mm | - | - | - |
| 1788277597 | 29.44° C | 70% | 1022.8 hPa | 0 mm | - | - | - |
| 1788277297 | 28.89° C | 69% | 1021.9 hPa | 0 mm | - | - | - |
| 1788277011 | 28.89° C | 68% | 1022.1 hPa | 0 mm | - | - | - |
| 1788276697 | 28.89° C | 69% | 1022 hPa | 0 mm | - | - | - |
| 1788276398 | 28.33° C | 71% | 1022.1 hPa | 0 mm | - | - | - |
| 1788276097 | 28.33° C | 71% | 1022 hPa | 0 mm | - | - | - |
| 1788275797 | 28.33° C | 70% | 1022 hPa | 0 mm | - | - | - |
| 1788275512 | 28.33° C | 70% | 1022 hPa | 0 mm | - | - | - |
| 1788274968 | 28.33° C | 71% | 1022.1 hPa | 0 mm | - | - | - |
| 1788274670 | 28.33° C | 73% | 1022.1 hPa | 0 mm | - | - | - |
| 1788274368 | 27.78° C | 72% | 1022.1 hPa | 0 mm | - | - | - |
| 1788274068 | 27.78° C | 72% | 1022.2 hPa | 0 mm | - | - | - |
| 1788273770 | 27.78° C | 73% | 1022.3 hPa | 0 mm | - | - | - |
* Rain latest hour (hover to see other rain measurements)
** Current wind speed in m/s (hover to see current wind gust speed)